FW5225 Weather Reports


time (UTC)temp
F
wind
direction
speed
knots
gust
knots
rain 1hr
in
rain 24hr
in
rain mn
in
humidity
%
barometer
mb
20260902120555 86 254 0.9 5.2 0.00 0.00 0.00 46 1009.4
20260902120106 86 250 0.9 5.2 0.00 0.00 0.00 45 1009.4
20260902115555 86 317 2.6 5.2 0.00 0.00 0.00 46 1009.4
20260902115054 86 269 1.7 5.2 0.00 0.00 0.00 45 1009.3
20260902114612 86 213 0.9 3.5 0.00 0.00 0.00 45 1009.3
20260902114054 86 217 0.0 4.3 0.00 0.00 0.00 45 1009.3
20260902113553 86 244 0.9 4.3 0.00 0.00 0.00 45 1009.3
20260902113059 86 223 0.0 1.7 0.00 0.00 0.00 44 1009.2
20260902112552 87 234 0.0 2.6 0.00 0.00 0.00 44 1009.2
20260902112053 87 255 0.0 3.5 0.00 0.00 0.00 44 1009.1
20260902111600 87 242 0.0 3.5 0.00 0.00 0.00 43 1009.1
20260902111050 87 228 0.0 4.3 0.00 0.00 0.00 43 1009.1
20260902110550 87 256 0.0 4.3 0.00 0.00 0.00 43 1009.1
20260902110054 87 283 0.9 3.5 0.00 0.00 0.00 42 1009.1
20260902105549 87 277 0.9 3.5 0.00 0.00 0.00 42 1009.0
20260902105048 88 263 0.0 2.6 0.00 0.00 0.00 41 1009.0
20260902104548 88 269 0.0 3.5 0.00 0.00 0.00 41 1009.1
20260902104050 88 234 0.9 3.5 0.00 0.00 0.00 41 1009.1
20260902103549 88 240 0.0 5.2 0.00 0.00 0.00 41 1009.0
20260902103100 88 273 2.6 5.2 0.00 0.00 0.00 40 1009.1
20260902102546 88 268 1.7 3.5 0.00 0.00 0.00 41 1009.1
20260902102045 88 307 0.0 4.3 0.00 0.00 0.00 41 1009.1
20260902101544 88 277 1.7 4.3 0.00 0.00 0.00 40 1009.1
20260902101044 89 281 0.9 7.0 0.00 0.00 0.00 41 1009.1
20260902100547 89 271 2.6 7.0 0.00 0.00 0.00 41 1009.1
20260902100044 89 252 0.9 6.1 0.00 0.00 0.00 40 1009.1
20260902095544 89 257 1.7 6.1 0.00 0.00 0.00 40 1009.1
20260902095043 89 247 3.5 7.8 0.00 0.00 0.00 40 1009.0
20260902094548 89 315 2.6 7.8 0.00 0.00 0.00 40 1009.1
20260902094044 89 259 1.7 7.8 0.00 0.00 0.00 41 1009.1
20260902093544 89 263 4.3 7.8 0.00 0.00 0.00 41 1009.2
20260902093043 89 250 2.6 6.1 0.00 0.00 0.00 41 1009.1
20260902092543 89 252 1.7 6.1 0.00 0.00 0.00 42 1009.1
20260902092043 89 261 1.7 4.3 0.00 0.00 0.00 42 1009.1
20260902091550 89 255 0.9 7.8 0.00 0.00 0.00 41 1009.1
20260902091042 89 281 2.6 7.8 0.00 0.00 0.00 41 1009.1
20260902090543 89 250 2.6 7.0 0.00 0.00 0.00 42 1009.1
20260902090051 89 279 1.7 7.0 0.00 0.00 0.00 42 1009.2
20260902085540 89 272 1.7 7.8 0.00 0.00 0.00 42 1009.3
20260902085041 89 267 3.5 7.8 0.00 0.00 0.00 42 1009.2
20260902084541 89 277 1.7 7.0 0.00 0.00 0.00 42 1009.3
20260902084039 89 254 0.9 3.5 0.00 0.00 0.00 42 1009.3
20260902083539 89 270 0.9 5.2 0.00 0.00 0.00 42 1009.3
20260902083044 89 279 0.9 5.2 0.00 0.00 0.00 42 1009.4
20260902082539 89 241 1.7 5.2 0.00 0.00 0.00 42 1009.4
20260902082039 89 249 1.7 5.2 0.00 0.00 0.00 41 1009.4
20260902081541 90 277 0.0 7.0 0.00 0.00 0.00 41 1009.4
20260902081037 90 231 1.7 7.0 0.00 0.00 0.00 41 1009.4
20260902080537 90 248 1.7 6.1 0.00 0.00 0.00 41 1009.3
20260902080037 90 259 1.7 6.1 0.00 0.00 0.00 40 1009.4
20260902075537 90 284 1.7 6.1 0.00 0.00 0.00 40 1009.3
20260902075035 90 274 1.7 6.1 0.00 0.00 0.00 40 1009.3
20260902074545 90 265 2.6 6.1 0.00 0.00 0.00 40 1009.3
20260902074035 90 287 2.6 6.1 0.00 0.00 0.00 40 1009.1
20260902073534 90 254 1.7 5.2 0.00 0.00 0.00 40 1009.2
20260902073037 90 221 2.6 5.2 0.00 0.00 0.00 40 1009.2
20260902072532 90 237 1.7 6.1 0.00 0.00 0.00 40 1009.2
20260902072034 91 290 1.7 6.1 0.00 0.00 0.00 40 1009.1
20260902071531 91 248 1.7 6.1 0.00 0.00 0.00 40 1009.1
20260902071032 91 289 2.6 6.1 0.00 0.00 0.00 39 1009.1
20260902070530 91 269 2.6 8.7 0.00 0.00 0.00 39 1009.1
20260902070029 91 254 4.3 8.7 0.00 0.00 0.00 39 1009.0
20260902065529 90 284 2.6 5.2 0.00 0.00 0.00 40 1009.0
20260902065029 90 307 2.6 6.1 0.00 0.00 0.00 40 1009.0
20260902064533 90 228 2.6 6.1 0.00 0.00 0.00 40 1008.9
20260902064031 90 253 1.7 7.0 0.00 0.00 0.00 41 1008.9
20260902063530 89 254 3.5 7.0 0.00 0.00 0.00 41 1008.9
20260902063029 89 244 1.7 4.3 0.00 0.00 0.00 42 1008.9
20260902062530 89 256 0.0 1.7 0.00 0.00 0.00 42 1008.9
20260902062028 89 257 0.0 3.5 0.00 0.00 0.00 41 1008.9
20260902061539 89 267 0.9 3.5 0.00 0.00 0.00 41 1008.9
20260902061028 89 250 0.0 1.7 0.00 0.00 0.00 41 1008.9
20260902060527 89 263 0.0 1.7 0.00 0.00 0.00 41 1008.9
20260902060042 89 239 0.0 1.7 0.00 0.00 0.00 41 1008.9
20260902055528 89 254 0.0 1.7 0.00 0.00 0.00 40 1009.0
20260902055028 90 281 0.0 2.6 0.00 0.00 0.00 40 1009.1
20260902054537 90 244 0.0 2.6 0.00 0.00 0.00 40 1009.1
20260902054030 90 259 0.0 1.7 0.00 0.00 0.00 41 1009.1
20260902053527 90 223 0.0 1.7 0.00 0.00 0.00 41 1009.2
20260902053028 90 210 0.0 1.7 0.00 0.00 0.00 40 1009.2
20260902052526 90 221 0.0 1.7 0.00 0.00 0.00 41 1009.1
20260902052031 90 203 0.0 2.6 0.00 0.00 0.00 42 1009.2
20260902051526 90 209 0.0 4.3 0.00 0.00 0.00 41 1009.2
20260902051029 90 183 0.9 4.3 0.00 0.00 0.00 41 1009.2
20260902050526 90 185 0.9 4.3 0.00 0.00 0.00 42 1009.3
20260902050027 90 139 0.0 1.7 0.00 0.00 0.00 43 1009.2
20260902045525 90 234 0.0 0.0 0.00 0.00 0.00 46 1009.1
20260902045028 90 234 0.0 0.0 0.00 0.00 0.00 46 1009.1
20260902044525 90 234 0.0 0.0 0.00 0.00 0.00 47 1009.0
20260902044026 91 234 0.0 0.0 0.00 0.00 0.00 45 1009.0
20260902043525 91 234 0.0 0.0 0.00 0.00 0.00 45 1008.9
20260902043026 91 234 0.0 0.0 0.00 0.00 0.00 44 1008.8
20260902042525 91 234 0.0 0.0 0.00 0.00 0.00 43 1008.8
20260902042024 91 234 0.0 0.0 0.00 0.00 0.00 46 1008.7
20260902041528 92 155 0.0 0.0 0.00 0.00 0.00 44 1008.7
20260902041025 92 155 0.0 0.0 0.00 0.00 0.00 45 1008.6
20260902040524 92 155 0.0 0.0 0.00 0.00 0.00 44 1008.5
20260902040024 92 155 0.0 0.0 0.00 0.00 0.00 43 1008.5
20260902035523 93 155 0.0 0.0 0.00 0.00 0.00 41 1008.4
20260902035023 93 161 0.0 0.0 0.00 0.00 0.00 39 1008.3
20260902034526 93 161 0.0 1.7 0.00 0.00 0.00 39 1008.2
20260902034025 93 153 0.0 1.7 0.00 0.00 0.00 38 1008.1
20260902033525 93 197 0.0 1.7 0.00 0.00 0.00 37 1008.0
20260902033023 93 171 0.0 1.7 0.00 0.00 0.00 36 1008.0
20260902032524 93 162 0.0 1.7 0.00 0.00 0.00 36 1007.9
20260902032022 94 169 0.0 1.7 0.00 0.00 0.00 36 1007.8
20260902031522 94 228 0.0 0.0 0.00 0.00 0.00 36 1007.8
20260902031022 94 228 0.0 0.0 0.00 0.00 0.00 36 1007.8
20260902030522 94 228 0.0 0.9 0.00 0.00 0.00 36 1007.7
20260902030021 95 228 0.0 0.9 0.00 0.00 0.00 34 1007.5
20260902025521 95 228 0.0 0.0 0.00 0.00 0.00 33 1007.4
20260902025022 95 228 0.0 0.0 0.00 0.00 0.00 32 1007.3
20260902024521 95 228 0.0 0.0 0.00 0.00 0.00 32 1007.3
20260902024025 95 228 0.0 1.7 0.00 0.00 0.00 32 1007.3
20260902023521 96 228 0.0 2.6 0.00 0.00 0.00 31 1007.3
20260902023021 96 275 0.9 2.6 0.00 0.00 0.00 31 1007.2
20260902022521 96 261 0.0 1.7 0.00 0.00 0.00 31 1007.2
20260902022020 96 200 0.0 1.7 0.00 0.00 0.00 31 1007.1
20260902021520 96 230 0.0 2.6 0.00 0.00 0.00 30 1007.1
20260902021020 96 267 0.0 2.6 0.00 0.00 0.00 30 1007.1
20260902020520 97 234 0.0 2.6 0.00 0.00 0.00 31 1007.1
20260902020019 97 234 0.0 2.6 0.00 0.00 0.00 30 1007.2
20260902015519 97 217 0.0 1.7 0.00 0.00 0.00 30 1007.1
20260902015019 98 190 0.0 1.7 0.00 0.00 0.00 30 1007.2
20260902014526 98 161 0.0 1.7 0.00 0.00 0.00 30 1007.1
20260902014019 98 219 0.0 1.7 0.00 0.00 0.00 30 1007.1
20260902013519 99 225 0.0 1.7 0.00 0.00 0.00 30 1007.1
20260902013019 99 150 0.0 3.5 0.00 0.00 0.00 30 1007.1
20260902012519 99 272 0.9 3.5 0.00 0.00 0.00 29 1007.1
20260902012019 99 190 0.0 1.7 0.00 0.00 0.00 29 1007.0
20260902011518 100 157 0.0 2.6 0.00 0.00 0.00 29 1007.0
20260902011017 100 263 0.0 2.6 0.00 0.00 0.00 29 1006.9
20260902010516 100 282 0.9 3.5 0.00 0.00 0.00 29 1007.0
20260902010028 100 227 0.9 4.3 0.00 0.00 0.00 29 1007.1
20260902005516 100 165 0.9 6.1 0.00 0.00 0.00 30 1007.1
20260902005017 101 300 2.6 6.1 0.00 0.00 0.00 28 1007.1
20260902004514 101 295 1.7 4.3 0.00 0.00 0.00 28 1007.3
20260902004014 101 150 0.0 5.2 0.00 0.00 0.00 28 1007.3
20260902003513 102 290 1.7 5.2 0.00 0.00 0.00 28 1007.4
20260902003016 102 253 1.7 4.3 0.00 0.00 0.00 28 1007.4
20260902002512 102 217 0.9 2.6 0.00 0.00 0.00 28 1007.5
20260902002012 102 143 0.0 2.6 0.00 0.00 0.00 29 1007.5
20260902001516 102 233 0.9 2.6 0.00 0.00 0.00 29 1007.5
20260902001011 102 241 0.9 2.6 0.00 0.00 0.00 29 1007.6
20260902000510 102 159 0.9 3.5 0.00 0.00 0.00 30 1007.6
20260902000019 102 226 0.9 3.5 0.00 0.00 0.00 30 1007.5
20260901235510 102 227 0.9 3.5 0.00 0.00 0.00 30 1007.6
20260901235008 102 115 0.9 7.0 0.00 0.00 0.00 30 1007.7
20260901234508 101 145 0.9 7.0 0.00 0.00 0.00 31 1007.8
20260901234008 101 78 0.0 3.5 0.00 0.00 0.00 32 1007.9
20260901233507 101 87 0.9 4.3 0.00 0.00 0.00 32 1007.9
20260901233007 101 128 0.0 6.1 0.00 0.00 0.00 31 1008.0
20260901232506 101 121 0.9 6.1 0.00 0.00 0.00 31 1008.0
20260901232005 101 123 0.9 4.3 0.00 0.00 0.00 31 1008.1
20260901231506 101 211 0.9 4.3 0.00 0.00 0.00 31 1008.1
20260901231004 101 211 1.7 4.3 0.00 0.00 0.00 30 1008.0
20260901230505 101 107 0.9 4.3 0.00 0.00 0.00 31 1008.1
20260901230009 101 123 0.0 4.3 0.00 0.00 0.00 31 1008.2
20260901225503 101 161 0.0 4.3 0.00 0.00 0.00 31 1008.3
20260901225003 101 208 0.9 7.0 0.00 0.00 0.00 31 1008.3
20260901224503 101 277 1.7 7.0 0.00 0.00 0.00 31 1008.4
20260901224002 101 209 1.7 3.5 0.00 0.00 0.00 31 1008.4
20260901223502 101 306 0.9 3.5 0.00 0.00 0.00 31 1008.4
20260901223002 101 201 0.0 4.3 0.00 0.00 0.00 31 1008.5
20260901222600 101 190 1.7 6.1 0.00 0.00 0.00 31 1008.6
20260901222059 102 279 2.6 6.1 0.00 0.00 0.00 30 1008.7
20260901221559 102 230 1.7 6.1 0.00 0.00 0.00 31 1008.7
20260901221059 102 211 1.7 4.3 0.00 0.00 0.00 31 1008.7
20260901220557 101 155 1.7 4.3 0.00 0.00 0.00 30 1008.8
20260901220115 101 180 0.9 5.2 0.00 0.00 0.00 31 1008.9
20260901215556 100 182 0.9 7.8 0.00 0.00 0.00 31 1009.0
20260901215056 101 292 3.5 7.8 0.00 0.00 0.00 31 1009.0
20260901214557 101 296 1.7 6.1 0.00 0.00 0.00 31 1009.1
20260901214054 101 179 1.7 6.1 0.00 0.00 0.00 31 1009.2
20260901213559 101 227 1.7 6.1 0.00 0.00 0.00 32 1009.3
20260901213054 100 167 2.6 6.1 0.00 0.00 0.00 33 1009.4
20260901212553 100 142 1.7 9.6 0.00 0.00 0.00 33 1009.5
20260901212049 100 157 0.9 6.1 0.00 0.00 0.00 33 1009.6
20260901211549 100 150 1.7 4.3 0.00 0.00 0.00 33 1009.7
20260901211048 101 310 0.9 6.1 0.00 0.00 0.00 33 1009.8
20260901210547 100 177 0.9 6.1 0.00 0.00 0.00 33 1009.9
20260901210048 100 185 2.6 7.0 0.00 0.00 0.00 34 1010.0
20260901205545 100 265 1.7 6.1 0.00 0.00 0.00 34 1010.0
20260901205044 99 180 2.6 6.1 0.00 0.00 0.00 34 1010.1
20260901204543 99 122 0.0 3.5 0.00 0.00 0.00 35 1010.2
20260901204045 99 273 0.0 5.2 0.00 0.00 0.00 35 1010.3
20260901203545 99 225 1.7 5.2 0.00 0.00 0.00 35 1010.4
20260901203047 98 166 0.9 6.1 0.00 0.00 0.00 36 1010.4
20260901202539 99 145 2.6 6.1 0.00 0.00 0.00 36 1010.5
20260901202041 98 135 3.5 7.0 0.00 0.00 0.00 36 1010.6
20260901201541 98 81 0.0 3.5 0.00 0.00 0.00 36 1010.6
20260901201037 97 197 0.9 3.5 0.00 0.00 0.00 37 1010.7
20260901200535 98 184 1.7 3.5 0.00 0.00 0.00 37 1010.7
20260901200035 97 233 0.9 6.1 0.00 0.00 0.00 37 1010.9
20260901195534 97 200 0.9 6.1 0.00 0.00 0.00 38 1010.9
20260901195033 96 146 0.0 3.5 0.00 0.00 0.00 38 1011.0
20260901194538 97 217 0.9 6.1 0.00 0.00 0.00 38 1011.0
20260901194031 96 192 1.7 6.1 0.00 0.00 0.00 38 1011.1
20260901193532 95 152 0.9 4.3 0.00 0.00 0.00 38 1011.1
20260901193031 95 210 0.9 7.8 0.00 0.00 0.00 39 1011.2
20260901192530 96 74 4.3 7.8 0.00 0.00 0.00 37 1011.2
20260901192029 96 121 1.7 5.2 0.00 0.00 0.00 38 1011.2
20260901191528 96 182 0.0 5.2 0.00 0.00 0.00 39 1011.4
20260901191032 95 155 1.7 4.3 0.00 0.00 0.00 40 1011.4
20260901190527 95 153 0.9 7.0 0.00 0.00 0.00 39 1011.5
20260901190025 94 153 1.7 8.7 0.00 0.00 0.00 40 1011.6
20260901185525 94 123 1.7 7.8 0.00 0.00 0.00 41 1011.6
20260901185026 94 88 1.7 4.3 0.00 0.00 0.00 40 1011.8
20260901184521 94 82 0.9 6.1 0.00 0.00 0.00 41 1011.8
20260901184020 93 110 2.6 7.0 0.00 0.00 0.00 41 1011.9
20260901183518 93 346 0.9 3.5 0.00 0.00 0.00 41 1012.0
20260901183019 93 293 0.0 4.3 0.00 0.00 0.00 43 1012.1
20260901182517 93 51 0.9 4.3 0.00 0.00 0.00 41 1012.2
20260901182014 92 173 0.0 7.0 0.00 0.00 0.00 43 1012.2
20260901181517 92 82 1.7 7.0 0.00 0.00 0.00 43 1012.3
20260901181012 92 117 2.6 6.1 0.00 0.00 0.00 43 1012.3
20260901180513 92 150 0.9 3.5 0.00 0.00 0.00 43 1012.3
20260901180009 92 238 0.9 3.5 0.00 0.00 0.00 44 1012.3
20260901175509 91 155 0.9 3.5 0.00 0.00 0.00 44 1012.4
20260901175007 91 303 0.0 4.3 0.00 0.00 0.00 45 1012.4
20260901174506 91 57 0.9 5.2 0.00 0.00 0.00 45 1012.5
20260901174004 90 110 2.6 6.1 0.00 0.00 0.00 45 1012.5
20260901173504 90 94 0.9 5.2 0.00 0.00 0.00 45 1012.6
20260901173002 90 105 1.7 6.1 0.00 0.00 0.00 45 1012.6
20260901172501 90 104 2.6 5.2 0.00 0.00 0.00 46 1012.7
20260901172059 90 96 1.7 5.2 0.00 0.00 0.00 45 1012.7
20260901171558 89 148 0.0 4.3 0.00 0.00 0.00 47 1012.6
20260901171056 89 102 0.0 4.3 0.00 0.00 0.00 47 1012.7
20260901170555 89 71 1.7 4.3 0.00 0.00 0.00 47 1012.7
20260901170116 89 167 1.7 6.1 0.00 0.00 0.00 47 1012.7
20260901165552 89 59 0.9 6.1 0.00 0.00 0.00 48 1012.6
20260901165051 88 88 1.7 5.2 0.00 0.00 0.00 48 1012.6
20260901164552 88 58 0.9 3.5 0.00 0.00 0.00 49 1012.6
20260901164048 87 40 0.0 5.2 0.00 0.00 0.00 49 1012.6
20260901163548 87 34 1.7 4.3 0.00 0.00 0.00 49 1012.6
20260901163047 87 97 0.0 4.3 0.00 0.00 0.00 49 1012.6
20260901162546 87 67 0.9 4.3 0.00 0.00 0.00 50 1012.5
20260901162044 87 53 0.0 2.6 0.00 0.00 0.00 50 1012.5
20260901161543 86 113 0.9 5.2 0.00 0.00 0.00 51 1012.4
20260901161043 86 44 1.7 5.2 0.00 0.00 0.00 50 1012.5
20260901160541 86 86 0.0 5.2 0.00 0.00 0.00 50 1012.4
20260901160050 86 45 1.7 5.2 0.00 0.00 0.00 50 1012.4
20260901155540 86 163 0.9 2.6 0.00 0.00 0.00 51 1012.4
20260901155037 86 64 0.0 2.6 0.00 0.00 0.00 52 1012.4
20260901154537 85 86 1.7 2.6 0.00 0.00 0.00 52 1012.4
20260901154036 85 77 0.0 3.5 0.00 0.00 0.00 52 1012.4
20260901153536 85 160 1.7 4.3 0.00 0.00 0.00 52 1012.4
20260901153033 85 137 0.9 4.3 0.00 0.00 0.00 51 1012.3
20260901152533 85 89 0.9 4.3 0.00 0.00 0.00 52 1012.4
20260901152035 84 121 0.9 4.3 0.00 0.00 0.00 53 1012.4
20260901151530 84 85 0.9 5.2 0.00 0.00 0.00 54 1012.2
20260901151028 83 105 0.9 5.2 0.00 0.00 0.00 54 1012.2
20260901150526 83 74 1.7 4.3 0.00 0.00 0.00 55 1012.2
20260901150037 83 53 2.6 6.1 0.00 0.00 0.00 55 1012.2
20260901145523 82 69 2.6 6.1 0.00 0.00 0.00 55 1012.2
20260901145023 82 40 1.7 3.5 0.00 0.00 0.00 57 1012.2
20260901144521 82 42 1.7 3.5 0.00 0.00 0.00 58 1012.0
20260901144020 81 42 1.7 3.5 0.00 0.00 0.00 59 1012.0
20260901143518 81 36 1.7 4.3 0.00 0.00 0.00 60 1012.0
20260901143017 81 36 0.9 5.2 0.00 0.00 0.00 61 1011.9
20260901142517 80 23 2.6 5.2 0.00 0.00 0.00 61 1011.9
20260901142014 80 360 1.7 5.2 0.00 0.00 0.00 62 1011.9
20260901141513 80 37 2.6 5.2 0.00 0.00 0.00 62 1012.0
20260901141011 79 38 1.7 5.2 0.00 0.00 0.00 62 1011.9
20260901140510 79 34 1.7 4.3 0.00 0.00 0.00 62 1011.9
20260901140011 79 47 1.7 4.3 0.00 0.00 0.00 62 1011.9
20260901135508 79 51 2.6 4.3 0.00 0.00 0.00 62 1011.8
20260901135007 79 46 2.6 4.3 0.00 0.00 0.00 62 1011.7
20260901134505 79 26 1.7 4.3 0.00 0.00 0.00 62 1011.7
20260901134007 79 46 1.7 3.5 0.00 0.00 0.00 62 1011.6
20260901133503 79 44 0.9 2.6 0.00 0.00 0.00 62 1011.6
20260901133007 79 57 0.9 2.6 0.00 0.00 0.00 63 1011.5
20260901132502 79 38 0.9 3.5 0.00 0.00 0.00 62 1011.5
20260901132103 79 49 1.7 3.5 0.00 0.00 0.00 62 1011.5
20260901132001 79 38 1.7 3.5 0.00 0.00 0.00 62 1011.5
20260901131602 79 41 0.0 3.5 0.00 0.00 0.00 62 1011.4
20260901131103 78 50 0.0 3.5 0.00 0.00 0.00 62 1011.4
20260901130559 78 39 1.7 3.5 0.00 0.00 0.00 62 1011.3
20260901130059 78 61 0.9 1.7 0.00 0.00 0.00 63 1011.4
20260901125558 78 14 0.0 1.7 0.00 0.00 0.00 63 1011.4
20260901125058 78 27 0.0 2.6 0.00 0.00 0.00 63 1011.4
20260901124605 78 22 0.0 2.6 0.00 0.00 0.00 63 1011.3
20260901124056 78 348 0.9 2.6 0.00 0.00 0.00 64 1011.4
20260901123626 78 40 0.9 2.6 0.00 0.00 0.00 63 1011.3
20260901123056 78 11 0.0 2.6 0.00 0.00 0.00 63 1011.2
20260901122556 78 44 0.9 2.6 0.00 0.00 0.00 63 1011.2
20260901122054 78 38 0.9 3.5 0.00 0.00 0.00 62 1011.1
20260901121604 78 55 1.7 3.5 0.00 0.00 0.00 62 1011.1
20260901121058 78 60 0.9 1.7 0.00 0.00 0.00 63 1011.2